Tracking 22287 objects as of 27-Jan-2021
HD Live streaming from Space Station
objects crossing your sky now

GALILEO 21 (2C7)

Track GALILEO 21 (2C7) now!
GALILEO 21 (2C7) is classified as:


NORAD ID: 43057
Int'l Code: 2017-079C
Perigee: 23,217.5 km
Apogee: 23,241.2 km
Inclination: 56.1 °
Period: 844.7 minutes
Semi major axis: 29600 km
RCS: Unknown
Launch date: December 12, 2017
Source: European Space Agency (ESA)
Launch site: FRENCH GUIANA (FRGUI)
aabbcc
Your satellite tracking list
Your tracking list is empty




NASA's NSSDC Master Catalog

Two Line Element Set (TLE):
1 43057U 17079C   21025.36749838  .00000025  00000-0  00000-0 0  9998
2 43057  56.0961 275.7041 0003996 319.5487  40.5029  1.70473854 19423
Source of the keplerian elements: AFSPC